Location: Newark
(47.5833°N, 8.1500°E)
Time: 23:20:46
(UTC+00:00)

Tiros 1 despin weight - Pass Details

Date: 30 October 2020
Orbit: 593 x 642 km, 48.2° (Epoch: 29 November)

Event Time Altitude Azimuth Distance (km) Brightness Sun altitude
Rises 05:46:02 0° 280° (W) 2,831 - -4.5°
Exits shadow 05:47:23 - 272° (W) 2,405 ? -4.3°
Reaches altitude 10° 05:49:15 10° 255° (WSW) 1,923 ? -4.0°
Maximum altitude 05:51:34 14° 223° (SW) 1,661 ? -3.6°
Drops below altitude 10° 05:53:54 10° 191° (S) 1,917 ? -3.2°
Sets 05:57:07 0° 166° (SSE) 2,817 ? -2.7°
